Probability
0 0 0 0 0 0 0 0 0 0 0 0 0 0 0 0 0 0 0 0 0 0 0 0 0 0 0 0 0 0 0 0 0 0 0 0 0 0 0 0 0 0 0 0
0 0 0 0 0 0 0 0 0 0 0 0 0 0 0 0 0 0 0 0 0 0 0 0 0 0 0 0 0 0 0 0 0 0 0 0 0 0 0 0 0 0 0 0
0 0 0 0 0 0 0 0 0 0 0 0 0 0 0 0 0 0 0 0 0 0 0 0 0 0 0 0 0 0 0 0 0 0 0 0 0 0 0 0 0 0 0 0
0 0 0 0 0 0 0 0 0 0 0 0 0 0 0 0 0 0 0 0 0 0 0 0 0 0 0 0 0 0 0 0 0 0 0 0 0 0 0 0 0 0 0 0
0 0 0 0 0 0 0 0 0 0 0 0 0 0 0 0 0 0 0 0 0 0 0 0 0 0 0 0 0 0 0 0 0 0 0 0 0 0 0 0 0 0 0 0
0 0 0 0 0 0 0 0 0 0 0 0 0 0 0 0 0 0 0 0 0 0 0 0 0 0 0 0 0 0 0 0 0 0 0 0 0 0 0 0 0 0 0 0
0 0 0 0 0 0 0 0 0 0 0 0 0 0 0 0 0 0 0 0 0 0 0 0 0 0 0 0 0 0 0 0 0 0 0 0 0 0 0 0 0 0 0 0
0 0 0 0 0 0 0 0 0 0 0 0 0 0 0 0 0 0 0 0 0 0 0 0 0 0 0 0 0 0 0 0 0 0 0 0 0 0 0 0 0 0 0 0
0 0 0 0 0 0 0 0 0 0 0 0 0 0 0 0 0 0 0 0 0 0 0 0 0 0 0 0 0 0 0 0 0 0 0 0 0 0 0 0 0 0 0 0
0 0 0 0 0 0 0 0 0 0 0 0 0 0 0 0 0 0 0 0 0 0 0 0 0 0 0 0 0 0 0 0 0 0 0 0 0 0 0 0 0 0 0 0
0 0 0 0 0 0 0 0 0 0 0 0 0 0 0 0 0 0 0 0 0 0 0 0 0 0 0 0 0 0 0 0 0 0 0 0 0 0 0 0 0 0 0 0
0 0 0 0 0 0 0 0 0 0 0 0 0 0 0 0 0 0 0 0 0 0 0 0 0 0 0 0 0 0 0 0 0 0 0 0 0 0 0 0 0 0 0 0
0 0 0 0 0 0 0 0 0 0 0 0 0 0 0 0 0 0 0 0 0 0 0 0 0 0 0 0 0 0 0 0 0 0 0 0 0 0 0 0 0 0 0 0
0 0 0 0 0 0 0 0 0 0 0 0 0 0 0 0 0 0 0 0 0 0 0 0 0 0 0 0 0 0 0 0 0 0 0 0 0 0 0 0 0 0 0 0
0 0 0 0 0 0 0 0 0 0 0 0 0 0 0 0 0 0 0 0 0 0 0 0 0 0 0 0 0 0 0 0 0 0 0 0 0 0 0 0 0 0 0 0
0 0 0 0 0 0 0 0 0 0 0 0 0 0 0 0 0 0 0 0 0 0 0 0 0 0 0 0 0 0 0 0 0 0 0 0 0 0 0 0 0 0 0 0
0 0 0 0 0 0 0 0 0 0 0 0 0 0 0 0 0 0 0 0 0 0 0 0 0 0 0 0 0 0 0 0 0 0 0 0 0 0 0 0 0 0 0 0
0 0 0 0 0 0 0 0 0 0 0 0 0 0 0 0 0 0 0 0 0 0 0 0 0 0 0 0 0 0 0 0 0 0 0 0 0 0 0 0 0 0 0 0
0 0 0 0 0 0 0 0 0 0 0 0 0 0 0 0 0 0 0 0 0 0 0 0 0 0 0 0 0 0 0 0 0 0 0 0 0 0 0 0 0 0 0 0
0 0 0 0 0 0 0 0 0 0 0 0 0 0 0 0 0 0 0 0 0 0 0 0 0 0 0 0 0 0 0 0 0 0 0 0 0 0 0 0 0 0 0 0
0 0 0 0 0 0 0 0 0 0 0 0 0 0 0 0 0 0 0 0 0 0 0 0 0 0 0 0 0 0 0 0 0 0 0 0 0 0 0 0 0 0 0 0
0 0 0 0 0 0 0 0 0 0 0 0 0 0 0 0 0 0 0 0 0 0 0 0 0 0 0 0 0 0 0 0 0 0 0 0 0 0 0 0 0 0 0 0
0 0 0 0 0 0 0 0 0 0 0 0 0 0 0 0 0 0 0 0 0 0 0 0 0 0 0 0 0 0 0 0 0 0 0 0 0 0 0 0 0 0 0 0
0 0 0 0 0 0 0 0 0 0 0 0 0 0 0 0 0 0 0 0 0 0 0 0 0 0 0 0 0 0 0 0 0 0 0 0 0 0 0 0 0 0 0 0
0 0 0 0 0 0 0 0 0 0 0 0 0 0 0 0 0 0 0 0 0 0 0 0 0 0 0 0 0 0 0 0 0 0 0 0 0 0 0 0 0 0 0 0
0 0 0 0 0 0 0 0 0 0 0 0 0 0 0 0 0 0 0 0 0 0 0 0 0 0 0 0 0 0 0 0 0 0 0 0 0 0 0 0 0 0 0 0
0 0 0 0 0 0 0 0 0 0 0 0 0 0 0 0 0 0 0 0 0 0 0 0 0 0 0 0 0 0 0 0 0 0 0 0 0 0 0 0 0 0 0 0
Wind_Speed
11 8 8 12 16 20 23 22 18 21 27 30 21 15 12 11 10 10 10 10 9 9 8 8 8 7 7 7 6 6 7 8 9 8 8 8 8 8 8 8 8 8 9 9
8 10 10 13 17 18 21 21 22 23 27 28 22 15 14 13 12 14 14 12 11 10 9 10 9 8 8 8 6 6 7 8 7 6 6 7 7 6 6 6 6 6 7 7
8 6 6 15 19 20 19 20 19 24 28 26 21 18 16 15 14 15 15 13 12 11 11 10 11 9 9 8 5 6 7 7 6 6 6 6 6 6 6 6 6 6 6 6
5 6 16 12 11 17 21 23 22 21 24 26 22 18 13 13 13 14 13 13 13 12 13 12 10 9 7 5 6 7 7 7 6 7 7 5 6 6 6 5 5 5 5 6
7 11 13 11 9 12 16 20 19 23 24 22 17 13 15 10 9 12 14 13 12 12 11 11 9 8 6 6 6 6 7 8 7 8 7 7 8 7 6 5 5 5 4 5
7 10 13 12 8 7 9 15 11 13 16 15 12 13 13 7 8 11 12 11 11 10 9 9 9 5 6 7 7 8 9 8 7 7 8 8 8 6 5 5 5 4 4 3
12 12 11 8 4 8 12 10 4 6 10 11 12 13 14 11 9 9 11 10 9 9 9 9 7 5 7 7 9 8 6 6 6 7 7 7 6 5 5 5 5 5 4 3
11 13 14 6 8 10 6 1 2 4 6 9 11 13 13 13 11 10 10 9 8 8 9 8 5 5 7 9 7 4 4 5 6 6 6 5 6 5 5 6 6 5 5 4
11 10 4 3 5 2 0 3 4 5 6 8 11 12 13 13 12 11 10 9 7 7 8 7 5 5 8 8 3 3 4 5 5 5 5 5 6 7 6 6 6 6 6 5
7 8 6 5 3 1 2 4 5 6 8 9 12 13 13 12 10 10 8 8 7 6 7 8 6 5 6 4 2 4 5 5 5 5 6 5 5 6 6 7 7 7 6 6
9 7 5 5 4 4 5 5 7 8 8 10 12 13 12 11 10 9 8 7 6 6 7 8 7 6 5 3 3 4 5 5 5 5 6 5 5 4 5 4 5 6 6 6
8 4 5 6 4 5 6 7 8 9 10 9 9 11 11 11 10 9 8 7 6 6 7 7 6 6 4 3 3 4 5 5 5 5 5 5 5 4 4 4 5 6 6 6
6 4 6 9 8 6 7 8 8 9 10 10 9 8 10 10 9 8 7 7 7 7 6 6 6 5 4 3 3 5 5 4 4 5 5 6 6 6 5 4 6 6 7 8
5 5 7 6 6 7 8 8 8 8 8 8 8 8 7 8 8 8 8 7 6 6 5 5 5 5 4 3 3 4 4 4 4 4 5 5 5 5 5 6 5 3 4 7
5 5 8 8 8 7 6 6 7 8 7 7 7 7 7 8 8 8 8 6 5 5 5 4 5 5 3 2 3 3 3 3 3 3 3 4 4 5 5 5 5 5 4 5
6 6 6 6 8 7 7 6 7 9 8 8 7 7 7 7 8 7 6 5 5 6 5 4 5 5 3 2 2 2 2 2 2 3 3 4 4 5 5 5 5 5 5 5
4 5 5 6 7 8 7 7 7 8 8 8 8 8 7 7 7 6 5 4 4 4 4 4 5 4 4 2 2 2 1 1 2 2 3 3 4 4 5 5 5 4 4 4
5 6 6 6 7 8 8 7 6 7 7 7 7 7 6 6 6 7 6 5 4 4 5 5 5 5 4 3 2 1 1 1 2 2 3 3 3 4 4 4 5 5 4 4
4 5 5 6 6 6 6 6 6 6 6 6 6 6 5 5 5 6 5 4 4 5 6 6 7 5 4 4 2 1 1 1 2 2 2 3 4 3 4 4 4 4 4 4
4 4 4 4 4 4 5 5 6 5 5 5 5 4 5 5 5 5 4 3 3 4 6 6 5 4 4 4 3 1 1 1 2 2 3 3 3 3 3 4 4 4 4 4
4 4 4 4 4 4 4 5 5 5 5 5 4 4 4 5 5 4 3 3 4 6 6 6 4 4 4 3 3 1 1 1 2 2 3 3 3 4 4 4 4 4 3 3
3 3 4 4 3 4 4 4 4 4 5 4 4 4 4 4 4 4 3 3 5 7 5 4 4 5 4 4 2 1 1 1 2 2 3 3 3 3 3 3 3 3 3 3
3 3 4 4 4 4 4 3 3 4 4 4 5 5 4 4 4 3 3 4 5 6 5 4 5 6 6 3 3 2 2 2 2 2 2 2 2 3 3 3 2 2 3 3
3 3 3 3 3 3 3 4 4 3 3 3 3 4 4 3 3 2 3 4 6 6 5 5 7 7 6 3 3 2 2 2 2 2 2 2 2 2 2 2 2 2 2 2
3 3 3 3 2 2 3 4 4 3 3 3 4 4 3 2 3 3 4 4 5 5 4 6 7 7 4 3 3 3 2 2 1 1 1 2 2 2 2 2 2 2 2 2
3 3 3 3 3 3 3 3 2 3 3 3 3 3 3 3 3 3 3 4 5 4 4 3 4 4 3 3 3 3 2 2 2 1 1 1 1 1 1 2 2 2 2 2
3 3 2 3 2 2 2 2 3 3 3 3 4 3 3 3 3 3 3 3 3 3 3 3 3 3 3 3 2 2 2 2 1 1 1 1 0 0 1 1 1 1 1 2
Wind_Direction
238 240 223 225 227 224 226 231 236 243 251 260 260 264 269 273 277 280 283 282 280 280 282 280 274 268 262 259 247 231 226 224 227 226 225 224 223 222 221 220 221 221 219 220
233 233 235 238 235 233 234 236 242 251 258 261 268 266 265 264 265 269 272 275 276 277 274 272 270 264 260 257 246 228 228 228 227 221 216 216 216 214 211 212 212 209 210 210
226 220 230 240 230 229 233 232 234 243 252 264 268 264 264 267 266 265 269 273 271 269 270 266 265 258 254 253 239 223 226 226 218 214 213 214 207 202 206 206 202 203 205 203
206 196 232 241 227 226 234 239 236 243 254 262 268 273 271 268 269 271 275 276 275 272 272 272 268 261 256 242 227 221 224 224 215 207 209 204 199 203 204 198 195 198 198 199
201 228 249 256 229 215 223 240 238 242 251 262 273 277 268 262 269 276 281 280 277 275 275 275 271 265 249 237 228 223 223 223 216 208 203 199 200 202 198 188 190 192 185 186
203 221 233 240 213 203 217 246 240 238 247 261 272 266 269 293 294 285 283 283 282 281 276 271 271 263 239 235 227 228 227 223 215 206 204 204 203 198 189 180 182 168 163 172
217 230 248 247 213 169 205 237 224 233 248 261 260 261 283 296 288 282 284 284 284 281 275 272 272 249 239 238 235 235 229 221 209 202 203 203 194 188 175 167 163 164 160 161
210 224 238 209 179 201 228 267 251 267 270 273 275 279 286 291 292 292 292 295 293 286 283 284 276 244 244 245 247 234 215 215 211 202 197 187 179 177 171 167 167 169 164 164
207 223 244 189 197 211 286 262 276 286 291 291 287 286 292 295 297 298 295 296 297 289 289 290 276 246 248 256 249 222 211 213 209 197 188 179 177 176 173 174 179 180 177 180
228 235 237 227 228 268 300 285 285 287 290 292 289 291 294 297 299 300 298 297 299 295 290 289 287 273 263 260 224 209 212 210 198 191 189 180 179 176 178 183 184 181 181 180
235 245 242 235 251 290 297 294 292 293 290 287 287 288 291 294 294 294 296 296 294 284 281 283 289 283 282 263 213 214 211 204 199 194 186 180 176 175 179 187 184 178 180 173
234 228 243 257 282 303 291 288 291 294 292 287 282 286 291 289 290 293 295 297 294 290 288 291 292 287 286 259 213 209 210 200 200 196 183 178 171 150 122 138 144 152 150 151
260 272 273 278 280 280 285 288 290 285 283 289 290 287 288 289 295 298 297 295 291 292 293 293 289 285 285 264 225 213 212 204 201 195 185 181 176 169 156 121 117 127 138 143
262 273 269 268 279 294 293 292 293 289 288 290 293 295 292 292 296 297 296 298 299 298 297 296 292 290 294 271 239 228 216 202 200 196 189 183 178 171 166 165 158 138 132 140
255 260 264 280 286 292 300 301 297 294 300 301 302 299 299 296 296 298 302 305 303 298 299 300 297 304 313 277 244 234 219 205 198 191 182 174 166 160 159 161 156 147 138 136
280 279 272 272 279 292 301 300 292 295 302 303 304 303 304 299 296 298 305 309 302 304 313 311 305 313 317 287 255 240 226 198 184 181 169 159 158 159 161 160 158 159 159 153
264 268 269 275 283 292 292 292 290 296 302 303 304 308 310 307 303 305 314 317 306 307 319 316 316 327 327 309 273 254 227 182 164 161 162 160 158 159 157 156 158 157 153 154
261 268 270 271 280 288 293 298 297 299 301 305 309 309 309 307 305 312 318 324 328 337 341 338 336 334 331 324 300 261 211 182 173 164 156 151 148 146 146 146 147 143 136 138
288 285 288 288 289 290 293 298 303 304 307 311 311 309 312 315 317 321 327 331 336 335 342 345 344 344 339 335 333 289 185 168 157 144 138 134 132 133 136 137 138 138 135 131
306 306 305 306 311 306 301 306 310 311 318 323 321 325 334 338 340 340 344 344 344 331 328 332 337 342 345 346 350 342 144 150 143 131 125 131 134 132 130 129 131 133 132 129
307 312 312 313 316 319 317 318 319 323 332 338 336 333 333 339 347 346 337 334 348 348 341 342 345 345 349 352 356 11 90 127 132 130 129 130 129 126 125 126 127 130 130 128
312 310 308 312 317 323 330 329 328 330 337 342 342 340 342 346 351 351 351 333 336 343 344 346 348 354 358 0 8 27 61 99 114 118 122 127 130 131 131 132 134 134 134 133
305 302 304 309 312 315 326 333 336 338 340 340 340 341 342 338 336 331 333 346 340 344 348 351 356 6 13 14 23 35 53 73 89 103 114 121 126 130 134 136 136 139 141 140
303 304 306 311 318 321 327 336 340 339 335 329 332 332 329 329 335 342 329 334 345 348 352 355 4 12 17 21 26 33 43 61 78 91 102 107 113 119 125 132 138 144 147 149
298 302 306 308 306 303 308 320 327 333 336 331 334 338 335 326 316 323 331 338 346 351 353 359 9 13 15 20 27 29 28 35 53 83 106 119 126 129 133 139 148 159 164 170
296 294 292 288 284 293 301 307 309 317 322 322 327 331 333 332 328 326 330 338 347 351 352 352 355 1 9 16 20 23 27 31 37 45 74 101 126 138 149 158 171 181 187 191
287 285 289 292 291 291 295 295 295 302 307 308 308 315 323 325 327 331 333 335 341 343 345 347 351 354 359 4 8 12 16 21 26 28 34 47 115 186 187 191 202 204 210 214